When you browse on this site, cookies collect data to enhance your experience and personalize the content and advertising you see.
Visit our Privacy Policy to learn more. By continuing to use the site, you agree to this use of cookies and data.
  • en Suisse
  • Liste des pays
  • À 7 jours
  • Température de l'eau
  • Carte satellitaire
  • Carte météo
  • Widgets météo
  • user-avatar
    Se connecter

    Météo par heure à Troickiy

    Ce jour, 27 Juin, Jeudi

    Heure Température Précipitation Vent Pression Humidité
    00:00 +18°C° 0 mm 2 m/s 744 mmHg 80%
    01:00 +17°C° 0.6 mm 2 m/s 744 mmHg 85%
    02:00 +16°C° 0.6 mm 3 m/s 743 mmHg 90%
    03:00 +14°C° 0 mm 4 m/s 743 mmHg 94%
    04:00 +14°C° 0.1 mm 3 m/s 743 mmHg 95%
    05:00 +14°C° 0.1 mm 3 m/s 742 mmHg 95%
    06:00 +14°C° 0.1 mm 3 m/s 742 mmHg 96%
    07:00 +16°C° 0 mm 3 m/s 741 mmHg 93%
    08:00 +17°C° 0 mm 4 m/s 741 mmHg 90%
    09:00 +18°C° 0 mm 4 m/s 740 mmHg 88%
    10:00 +18°C° 0.9 mm 4 m/s 739 mmHg 90%
    11:00 +18°C° 0.9 mm 4 m/s 738 mmHg 93%
    12:00 +18°C° 0.9 mm 4 m/s 738 mmHg 96%
    13:00 +18°C° 3.9 mm 4 m/s 737 mmHg 95%
    14:00 +18°C° 3.9 mm 4 m/s 736 mmHg 95%
    15:00 +19°C° 3.9 mm 5 m/s 735 mmHg 95%
    16:00 +19°C° 0.9 mm 4 m/s 734 mmHg 95%
    17:00 +20°C° 0.9 mm 4 m/s 733 mmHg 95%
    18:00 +20°C° 0.9 mm 4 m/s 732 mmHg 95%
    19:00 +20°C° 1.6 mm 4 m/s 731 mmHg 94%
    20:00 +20°C° 1.6 mm 4 m/s 730 mmHg 94%
    21:00 +19°C° 1.6 mm 3 m/s 730 mmHg 93%
    22:00 +19°C° 0.4 mm 4 m/s 729 mmHg 94%
    23:00 +19°C° 0.4 mm 4 m/s 728 mmHg 95%

    Demain, 28 Juin, Vendredi

    Heure Température Précipitation Vent Pression Humidité
    00:00 +18°C° 0.4 mm 4 m/s 727 mmHg 96%
    01:00 +18°C° 0 mm 4 m/s 727 mmHg 96%
    02:00 +17°C° 0 mm 5 m/s 727 mmHg 96%
    03:00 +17°C° 0 mm 5 m/s 727 mmHg 96%
    04:00 +16°C° 0 mm 5 m/s 727 mmHg 94%
    05:00 +15°C° 0 mm 6 m/s 727 mmHg 93%
    06:00 +14°C° 0 mm 6 m/s 726 mmHg 92%
    07:00 +14°C° 0.1 mm 6 m/s 727 mmHg 91%
    08:00 +15°C° 0.1 mm 6 m/s 727 mmHg 89%
    09:00 +15°C° 0.1 mm 6 m/s 727 mmHg 88%
    10:00 +15°C° 0.1 mm 6 m/s 727 mmHg 87%
    11:00 +15°C° 0.1 mm 7 m/s 726 mmHg 86%
    12:00 +15°C° 0.1 mm 7 m/s 726 mmHg 84%
    13:00 +15°C° 0.2 mm 6 m/s 726 mmHg 84%
    14:00 +15°C° 0.2 mm 6 m/s 726 mmHg 84%
    15:00 +15°C° 0.2 mm 6 m/s 726 mmHg 84%
    16:00 +14°C° 0.1 mm 6 m/s 726 mmHg 84%
    17:00 +14°C° 0.1 mm 5 m/s 726 mmHg 84%
    18:00 +14°C° 0.1 mm 5 m/s 726 mmHg 85%
    19:00 +13°C° 0.1 mm 4 m/s 726 mmHg 87%
    20:00 +12°C° 0.1 mm 3 m/s 726 mmHg 89%
    21:00 +13°C° 0.1 mm 2 m/s 726 mmHg 91%
    22:00 +12°C° 0.1 mm 3 m/s 726 mmHg 92%
    23:00 +11°C° 0.1 mm 4 m/s 726 mmHg 93%

    Après-demain, 29 Juin, Samedi

    Heure Température Précipitation Vent Pression Humidité
    00:00 +10°C° 0.1 mm 5 m/s 726 mmHg 94%
    01:00 +10°C° 0.3 mm 5 m/s 726 mmHg 95%
    02:00 +9°C° 0.3 mm 5 m/s 726 mmHg 95%
    03:00 +9°C° 0.3 mm 5 m/s 726 mmHg 95%
    04:00 +9°C° 0.3 mm 5 m/s 726 mmHg 95%
    05:00 +10°C° 0.3 mm 5 m/s 727 mmHg 95%
    06:00 +10°C° 0.3 mm 5 m/s 727 mmHg 95%
    07:00 +10°C° 0.3 mm 6 m/s 727 mmHg 95%
    08:00 +10°C° 0.3 mm 6 m/s 728 mmHg 94%
    09:00 +10°C° 0.3 mm 7 m/s 728 mmHg 94%
    10:00 +10°C° 0.3 mm 7 m/s 729 mmHg 94%
    11:00 +10°C° 0.3 mm 7 m/s 729 mmHg 94%
    12:00 +10°C° 0.3 mm 8 m/s 730 mmHg 93%
    13:00 +9°C° 0.2 mm 7 m/s 731 mmHg 93%
    14:00 +9°C° 0.2 mm 7 m/s 732 mmHg 93%
    15:00 +8°C° 0.2 mm 7 m/s 733 mmHg 93%
    16:00 +8°C° 0 mm 7 m/s 733 mmHg 92%
    17:00 +8°C° 0 mm 6 m/s 734 mmHg 91%
    18:00 +8°C° 0 mm 6 m/s 734 mmHg 90%
    19:00 +8°C° 0 mm 5 m/s 735 mmHg 90%
    20:00 +8°C° 0 mm 5 m/s 735 mmHg 90%
    21:00 +8°C° 0 mm 4 m/s 736 mmHg 90%
    22:00 +8°C° 0 mm 4 m/s 736 mmHg 89%
    23:00 +8°C° 0 mm 4 m/s 736 mmHg 88%

    30 Juin, Dimanche

    Heure Température Précipitation Vent Pression Humidité
    00:00 +8°C° 0 mm 4 m/s 736 mmHg 87%
    01:00 +9°C° 0 mm 3 m/s 736 mmHg 87%
    02:00 +9°C° 0 mm 3 m/s 736 mmHg 86%
    03:00 +9°C° 0 mm 3 m/s 737 mmHg 85%
    04:00 +9°C° 0 mm 3 m/s 737 mmHg 84%
    05:00 +9°C° 0 mm 3 m/s 737 mmHg 83%
    06:00 +8°C° 0 mm 4 m/s 737 mmHg 82%
    07:00 +11°C° 0 mm 4 m/s 737 mmHg 78%
    08:00 +12°C° 0 mm 4 m/s 738 mmHg 74%
    09:00 +14°C° 0 mm 4 m/s 738 mmHg 69%
    10:00 +15°C° 0 mm 5 m/s 738 mmHg 66%
    11:00 +16°C° 0 mm 5 m/s 739 mmHg 62%
    12:00 +17°C° 0 mm 5 m/s 739 mmHg 58%
    13:00 +19°C° 0 mm 5 m/s 739 mmHg 58%
    14:00 +19°C° 0 mm 4 m/s 739 mmHg 57%
    15:00 +20°C° 0 mm 4 m/s 738 mmHg 57%
    16:00 +19°C° 0.3 mm 4 m/s 739 mmHg 64%
    17:00 +19°C° 0.3 mm 4 m/s 739 mmHg 71%
    18:00 +18°C° 0.3 mm 4 m/s 739 mmHg 79%
    19:00 +17°C° 0.3 mm 3 m/s 739 mmHg 82%
    20:00 +16°C° 0.3 mm 3 m/s 739 mmHg 85%
    21:00 +13°C° 0.3 mm 3 m/s 739 mmHg 88%
    22:00 +13°C° 0 mm 3 m/s 740 mmHg 89%
    23:00 +12°C° 0 mm 3 m/s 740 mmHg 90%

    1 Juillet, Lundi

    Heure Température Précipitation Vent Pression Humidité
    00:00 +11°C° 0 mm 3 m/s 740 mmHg 91%
    01:00 +11°C° 0 mm 3 m/s 740 mmHg 90%
    02:00 +12°C° 0 mm 2 m/s 740 mmHg 89%
    03:00 +10°C° 0 mm 2 m/s 741 mmHg 87%
    04:00 +12°C° 0 mm 2 m/s 741 mmHg 88%
    05:00 +12°C° 0 mm 2 m/s 741 mmHg 88%
    06:00 +13°C° 0 mm 2 m/s 741 mmHg 88%
    07:00 +15°C° 0 mm 2 m/s 741 mmHg 84%
    08:00 +16°C° 0 mm 2 m/s 741 mmHg 80%
    09:00 +19°C° 0 mm 1 m/s 741 mmHg 75%
    10:00 +19°C° 0 mm 2 m/s 741 mmHg 72%
    11:00 +20°C° 0 mm 2 m/s 741 mmHg 69%
    12:00 +21°C° 0 mm 2 m/s 741 mmHg 66%
    13:00 +22°C° 0 mm 3 m/s 740 mmHg 67%
    14:00 +22°C° 0 mm 3 m/s 740 mmHg 69%
    15:00 +24°C° 0 mm 3 m/s 740 mmHg 70%
    16:00 +24°C° 0 mm 3 m/s 739 mmHg 73%
    17:00 +24°C° 0 mm 3 m/s 739 mmHg 76%
    18:00 +23°C° 0 mm 4 m/s 739 mmHg 79%
    19:00 +22°C° 0 mm 4 m/s 739 mmHg 84%
    20:00 +21°C° 0 mm 3 m/s 738 mmHg 89%
    21:00 +19°C° 0 mm 3 m/s 738 mmHg 94%
    22:00 +19°C° 0 mm 3 m/s 738 mmHg 94%
    23:00 +19°C° 0 mm 3 m/s 738 mmHg 95%

    2 Juillet, Mardi

    Heure Température Précipitation Vent Pression Humidité
    00:00 +18°C° 0 mm 3 m/s 737 mmHg 96%
    01:00 +18°C° 0.8 mm 3 m/s 737 mmHg 96%
    02:00 +18°C° 0.8 mm 3 m/s 737 mmHg 96%
    03:00 +18°C° 0.8 mm 2 m/s 736 mmHg 96%
    04:00 +18°C° 0.8 mm 3 m/s 736 mmHg 96%
    05:00 +19°C° 0.8 mm 3 m/s 736 mmHg 96%
    06:00 +19°C° 0.8 mm 3 m/s 736 mmHg 96%
    07:00 +20°C° 0 mm 3 m/s 736 mmHg 91%
    08:00 +21°C° 0 mm 4 m/s 736 mmHg 86%
    09:00 +23°C° 0 mm 4 m/s 736 mmHg 81%
    10:00 +23°C° 0 mm 5 m/s 736 mmHg 76%
    11:00 +23°C° 0 mm 6 m/s 736 mmHg 72%
    12:00 +24°C° 0 mm 6 m/s 736 mmHg 68%
    13:00 +24°C° 0 mm 6 m/s 736 mmHg 66%
    14:00 +23°C° 0 mm 7 m/s 736 mmHg 64%
    15:00 +23°C° 0 mm 7 m/s 736 mmHg 62%
    16:00 +23°C° 0 mm 6 m/s 736 mmHg 65%
    17:00 +23°C° 0 mm 5 m/s 737 mmHg 67%
    18:00 +22°C° 0 mm 5 m/s 737 mmHg 70%
    19:00 +21°C° 0 mm 4 m/s 737 mmHg 73%
    20:00 +19°C° 0 mm 4 m/s 737 mmHg 76%
    21:00 +18°C° 0 mm 4 m/s 737 mmHg 80%
    22:00 +17°C° 0 mm 4 m/s 737 mmHg 83%
    23:00 +15°C° 0 mm 4 m/s 737 mmHg 86%
    Voir plus